Weather in Khmeliv

Ukraine / Sumi District     50°53′20″N   33°29′12″E
temp.,
°C
wind,
m/s
gust,
m/s
humid.,
%
clouds,
%
prec.,
mm/h
press.,
hPa
HPBL,
m
27 october, wed
wed2700:00+3ssw512649 0.0 1027268
03:00+2ssw5126811 0.0 1027252
06:00+2ssw513755 0.0 1025280
09:00+3ssw613800 0.0 1024367
12:00+8sw710702 0.0 1024657
15:00+10wsw67605 0.0 1022895
18:00+8wsw376597 0.0 1023239
21:00+5w347614 0.0 102361
28 october, thu
thu2800:00+5w358571 0.0 102484
03:00+5wsw3690100 0.0 1023111
06:00+5sw41089100 0.0 1022226
09:00+7sw61382100 0.1 1021391
12:00+9w51178100 0.0 1021494
15:00+9wnw51184100 0.1 1020512
18:00+9wnw4988100 0.0 1021340
21:00+9nw499399 0.0 1023308
29 october, fri
fri2900:00+7nw37965 0.0 1024138
03:00+5n35965 0.0 102687
06:00+4nne33925 0.0 102736
09:00+5ne24845 0.0 1029122
12:00+10ene23610 0.0 1029492
15:00+11e22570 0.0 1029726
18:00+8ene22745 0.0 103011
21:00+6ese33820 0.0 103029
30 october, sat
sat3000:00+5se35890 0.0 103168
03:00+4sse35920 0.0 103281
06:00+4sse35925 0.0 103273
09:00+5sse37895 0.0 1033173
12:00+10sse46640 0.0 1032476
15:00+12s45560 0.0 1031759
18:00+8sse33730 0.0 103136
21:00+7sse34770 0.0 103265
31 october, sun
sun3100:00+6sse34770 0.0 103261
03:00+5sse34800 0.0 103254
05:00+4sse34810 0.0 103159
08:00+5se36780 0.0 1031149
11:00+10sse57610 0.0 1030496
14:00+12sse45550 0.0 1028758
17:00+8se46690 0.0 102788
20:00+6se410720 0.0 1027163